Weather History for Covington, KY

Change the Weather History Date:

Wednesday, December 19, 2012

  Actual Average Record
Temperature  
Mean Temperature 41 °F 33 °F  
Max Temperature 47 °F 40 °F 67 °F (1877)
Min Temperature 35 °F 26 °F -7 °F (1963)
Degree Days  
Heating Degree Days 24 32  
Month to date heating degree days 363 561  
Since 1 July heating degree days 1469 1521  
Cooling Degree Days 0 0  
Month to date cooling degree days 0 0  
Year to date cooling degree days 1439 1121  
Moisture  
Dew Point 35 °F    
Average Humidity 77    
Maximum Humidity 89    
Minimum Humidity 65    
Precipitation  
Precipitation 0.00 in 0.10 in 2.03 in (2002)
Month to date precipitation 3.68 2.05  
Year to date precipitation 36.71 41.20  
Snow  
Snow 0.00 in 0.20 in 2.90 in (2009)
Month to date snowfall T 2.5  
Since 1 July snowfall T 3.3  
Snow Depth 0.00 in    
Sea Level Pressure  
Sea Level Pressure 29.99 in    
Wind  
Wind Speed 7 mph (SSW)    
Max Wind Speed 21 mph    
Max Gust Speed 28 mph    
Visibility 8 miles    
Events      
T = Trace of Precipitation, MM = Missing Value Source: NWS Daily Summary

Daily Weather History Graph

Daily Weather History Graph

Search for Another Location

Airport:

Trip Planner

Search our weather history database for the weather conditions in past years. The results will help you decide how hot, cold, wet, or windy it might be!

Date:

Astronomy

Dec. 19, 2012 Rise Set
Actual Time 7:53 AM EST 5:18 PM EST
Civil Twilight 7:23 AM EST 5:48 PM EST
Nautical Twilight 6:49 AM EST 6:22 PM EST
Astronomical Twilight 6:17 AM EST 6:55 PM EST
Moon 12:05 PM EST (12/19) No Moon Set
Length of Visible Light 10h 25m
Length of Day
9h 25m
Waxing Crescent, 45% of the Moon is Illuminated
Dec 19
Waxing Crescent
Dec 20
First Quarter
Dec 28
Full
Jan 4
Last Quarter
Jan 11
New

Hourly Weather History & Observations

Time (EST) Temp. Windchill Dew Point Humidity Pressure Visibility Wind Dir Wind Speed Gust Speed Precip Events Conditions
12:52 AM 42.1 °F 37.1 °F 34.0 °F 73% 29.81 in 10.0 mi SW 8.1 mph - N/A   Scattered Clouds
1:52 AM 43.0 °F 37.2 °F 35.1 °F 74% 29.82 in 10.0 mi SW 10.4 mph - N/A   Scattered Clouds
2:52 AM 44.1 °F 39.0 °F 36.0 °F 73% 29.86 in 10.0 mi WSW 9.2 mph - N/A   Clear
3:22 AM 42.8 °F 36.2 °F 37.4 °F 81% 29.87 in 10.0 mi West 12.7 mph - N/A   Mostly Cloudy
3:52 AM 41.0 °F 32.2 °F 35.1 °F 79% 29.90 in 10.0 mi WNW 18.4 mph - N/A   Scattered Clouds
4:52 AM 37.0 °F 29.8 °F 32.0 °F 82% 29.94 in 7.0 mi WNW 10.4 mph - N/A   Partly Cloudy
5:52 AM 36.0 °F 29.6 °F 32.0 °F 86% 29.97 in 6.0 mi West 8.1 mph - N/A   Scattered Clouds
6:19 AM 37.4 °F 30.3 °F 32.0 °F 81% 29.97 in 6.0 mi WNW 10.4 mph - N/A   Haze
6:52 AM 37.0 °F 33.3 °F 32.0 °F 82% 29.99 in 7.0 mi WNW 4.6 mph - N/A   Overcast
7:52 AM 37.0 °F 32.4 °F 32.0 °F 82% 30.01 in 6.0 mi WNW 5.8 mph - N/A   Overcast
8:52 AM 37.0 °F 34.5 °F 33.1 °F 86% 30.05 in 7.0 mi WSW 3.5 mph - N/A   Overcast
9:30 AM 37.4 °F - 33.8 °F 87% 30.04 in 6.0 mi Calm Calm - N/A   Haze
9:52 AM 39.0 °F 36.8 °F 33.1 °F 79% 30.06 in 7.0 mi WNW 3.5 mph - N/A   Overcast
10:52 AM 39.9 °F - 34.0 °F 79% 30.06 in 7.0 mi Calm Calm - N/A   Overcast
11:52 AM 42.1 °F - 34.0 °F 73% 30.07 in 7.0 mi Calm Calm - N/A   Overcast
12:52 PM 43.0 °F 40.3 °F 35.1 °F 74% 30.06 in 8.0 mi SSE 4.6 mph - N/A   Mostly Cloudy
1:52 PM 45.0 °F 42.6 °F 35.1 °F 68% 30.06 in 8.0 mi South 4.6 mph - N/A   Mostly Cloudy
2:52 PM 46.0 °F 42.5 °F 35.1 °F 66% 30.04 in 8.0 mi SSE 6.9 mph - N/A   Mostly Cloudy
3:52 PM 46.9 °F - 35.1 °F 63% 30.04 in 8.0 mi East 5.8 mph - N/A   Mostly Cloudy
4:52 PM 43.0 °F 39.5 °F 35.1 °F 74% 30.05 in 8.0 mi SE 5.8 mph - N/A   Mostly Cloudy
5:52 PM 43.0 °F 39.5 °F 35.1 °F 74% 30.06 in 9.0 mi SE 5.8 mph - N/A   Overcast
6:52 PM 43.0 °F 38.8 °F 36.0 °F 76% 30.06 in 8.0 mi ESE 6.9 mph - N/A   Overcast
7:52 PM 43.0 °F 37.7 °F 36.0 °F 76% 30.04 in 8.0 mi ESE 9.2 mph - N/A   Overcast
8:52 PM 43.0 °F 37.7 °F 36.0 °F 76% 30.04 in 8.0 mi East 9.2 mph - N/A   Mostly Cloudy
9:52 PM 43.0 °F 37.2 °F 36.0 °F 76% 30.00 in 8.0 mi ESE 10.4 mph - N/A   Mostly Cloudy
10:52 PM 43.0 °F 36.8 °F 37.0 °F 80% 29.98 in 9.0 mi East 11.5 mph - N/A   Overcast
11:52 PM 43.0 °F 36.4 °F 37.0 °F 80% 29.94 in 10.0 mi ESE 12.7 mph 21.9 mph N/A   Mostly Cloudy